OpenBCM V1.13 (Linux)

Packet Radio Mailbox

DB0FHN

[JN59NK Nuernberg]

 Login: GUEST





  
I0OJJ  > KEPS     19.03.25 02:26l 328 Lines 15599 Bytes #999 (0) @ AMSAT
BID : ORB25078.1
Read: DJ6UX GUEST
Subj: 2Line Orbital Elements 25078.AMSAT
Path: DB0FHN<DB0FFL<OE5XBL<OE6XPE<DB0ERF<IZ3LSV<I0OJJ
Sent: 250319/0025z @:I0OJJ.ITA.EU [Rome] obcm1.08-6-g5b69
From: I0OJJ @ I0OJJ.ITA.EU (Gustavo)
To:   KEPS @ AMSAT
X-Info: This message was generated automatically


QST de W1STR

AMSAT Orbital Elements for Amateur Satellites in TLE Format
From Orbital Analysis Office
New England Sci-Tech STEM Education Center
Natick, MA March 19, 2025
To all radio amateurs


These element sets describe the orbits of various satellites 
in use by the amateur radio community. For details see:
www.amsat.org/keplerian-elements-formats/

A daily update of element sets is available at:
www.amsat.org/tle/daily-bulletin.txt
or without bulletin text:
www.amsat.org/tle/dailytle.txt


AO-07
1 07530U 74089B   25077.58702225 -.00000039  00000-0  46249-4 0  9997
2 07530 101.9955  80.9627 0011884 280.8428 191.4836 12.53687247303422
UO-11
1 14781U 84021B   25077.48592032  .00004237  00000-0  45666-3 0  9996
2 14781  97.7458  45.5664 0006181 247.0878 112.9687 14.88933418189275
AO-27
1 22825U 93061C   25077.13892297  .00000373  00000-0  15972-3 0  9990
2 22825  98.7470 138.2424 0008343   5.2863 354.8406 14.30751257641783
FO-29
1 24278U 96046B   25077.35261797  .00000046  00000-0  83109-4 0  9994
2 24278  98.5843 342.1700 0349626 198.0368 160.8107 13.53240643411510
NOAA-15
1 25338U 98030A   25077.86016435  .00000490  00000-0  21942-3 0  9999
2 25338  98.5448 104.9495 0009322 237.5754 122.4525 14.26912882396600
GO-32
1 25397U 98043D   25077.51662913  .00000363  00000-0  17742-3 0  9990
2 25397  98.9633  54.9368 0002359  87.9903 272.1545 14.24274617386467
ISS
1 25544U 98067A   25077.86855735  .00037299  00000-0  66721-3 0  9993
2 25544  51.6402  34.3664 0004296  19.8911  61.0593 15.49618050501151
NO-44
1 26931U 01043C   25077.09611987  .00000656  00000-0  27677-3 0  9990
2 26931  67.0529 343.6800 0005661 267.1832  92.8621 14.31659033225151
SO-50
1 27607U 02058C   25077.45472720  .00004266  00000-0  55505-3 0  9990
2 27607  64.5528  97.0549 0046776 354.2582   5.7981 14.81157383196914
CO-55
1 27844U 03031E   25077.55412023  .00001085  00000-0  49243-3 0  9994
2 27844  98.6796  86.8918 0010813  71.2779 288.9573 14.23878959126825
CO-57
1 27848U 03031J   25077.46410887  .00000949  00000-0  43872-3 0  9994
2 27848  98.6822  86.8705 0010780  86.6092 273.6319 14.23230583126547
RS-22
1 27939U 03042A   25077.90618317  .00004196  00000-0  67672-3 0  9996
2 27939  98.3195 245.4092 0010489 271.3603 246.6851 14.71962432148663
NOAA-18
1 28654U 05018A   25077.80754685  .00000539  00000-0  30924-3 0  9991
2 28654  98.8459 158.2075 0014051   8.9650 351.1770 14.13546095 22058
CO-58
1 28895U 05043F   25077.38492203  .00006265  00000-0  10403-2 0  9995
2 28895  98.2356 220.7838 0014573 206.9875 153.0574 14.70450140 34710
CO-65
1 32785U 08021C   25077.49991870  .00014411  00000-0  10740-2 0  9999
2 32785  97.7791  48.1664 0012618 123.3741 236.8693 15.02943182916665
AAUSAT2
1 32788U 08021F   25077.52205204  .00211156  00000-0  28766-2 0  9997
2 32788  97.6068  71.0676 0004167 115.9762 244.1922 15.56798686920334
CO-66
1 32791U 08021J   25077.48231737  .00030631  00000-0  16176-2 0  9995
2 32791  97.7232  55.8718 0007114  93.1797 267.0249 15.15436754917971
RS-30
1 32953U 08025A   25077.83026824  .00000031  00000-0  15343-3 0  9994
2 32953  82.4978 278.6560 0018863 224.6893 135.2668 12.43160273763259
NOAA-19
1 33591U 09005A   25077.80044370  .00000469  00000-0  27412-3 0  9990
2 33591  99.0064 142.0124 0013042 234.7179 125.2774 14.13312754830413
SRMSAT
1 37841U 11058D   25077.05146190  .00000733  00000-0  25473-3 0  9992
2 37841  19.9726 300.0053 0011718 225.9667 295.4688 14.11386438693295
ZACUBE-1
1 39417U 13066B   25077.85533015  .00014511  00000-0  12944-2 0  9995
2 39417  97.7715  35.4192 0044468 330.9766  28.8983 14.95312663612542
Delfi-N3xt
1 39428U 13066N   25077.82854284  .00021111  00000-0  22290-2 0  9997
2 39428  97.8360 356.5007 0085595 273.1444  85.9981 14.86573421606951
GOMX-1
1 39430U 13066Q   25077.84303201  .00005808  00000-0  90902-3 0  9991
2 39430  97.6950 301.5552 0135076  97.0937 264.5650 14.67095907603279
LO-74
1 39440U 13066AA  25077.84626660  .00013325  00000-0  13755-2 0  9992
2 39440  97.8425  23.0779 0065601  92.7684 268.1043 14.88685691610321
AO-73
1 39444U 13066AE  25077.44686872  .00021186  00000-0  16625-2 0  9996
2 39444  97.7617  39.2368 0039783 309.4470  50.3235 15.00321095611115
DTUSAT-2
1 40030U 14033W   25077.45375695  .00020832  00000-0  14168-2 0  9990
2 40030  98.0479  45.3959 0009321 354.8690   5.2439 15.06325355583870
EO-80
1 40032U 14033Y   25077.87677581  .00019939  00000-0  13530-2 0  9995
2 40032  98.0363  45.6069 0006525 285.4121  74.6384 15.06439118584435
LILACSAT-2
1 40908U 15049K   25077.83698689  .00025886  00000-0  73511-3 0  9997
2 40908  97.5143  96.2998 0012048  97.6837 262.5775 15.36103973525510
IO-86
1 40931U 15052B   25038.81889873  .00001817  00000-0  15548-3 0  9993
2 40931   6.0001 108.1159 0012838 187.7041 172.2889 14.78568669506492
Horyu-4
1 41340U 16012D   25077.88010927  .00046526  00000-0  14632-2 0  9999
2 41340  30.9979 326.2320 0008486 289.4150  70.5576 15.31703743500070
Lapan A3
1 41603U 16040E   25077.87007010  .00008033  00000-0  28777-3 0  9997
2 41603  97.1402  85.7589 0010640 194.3467 165.7473 15.28947412485144
CAS-2T
1 41847U 16066G   25077.56405684  .00003622  00000-0  52079-3 0  9991
2 41847  98.4253 152.7415 0348329  69.6892 294.1369 14.43163443439048
CAS-4B
1 42759U 17034B   25077.49778065  .00078444  00000-0  12887-2 0  9994
2 42759  43.0098  92.9347 0015980  68.3369 291.9192 15.51316911429646
CAS-4A
1 42761U 17034D   25077.51636576  .00079539  00000-0  12760-2 0  9996
2 42761  43.0133  90.6334 0017351  74.5371 285.7405 15.51947481429657
TechnoSat
1 42829U 17042E   25077.46757268  .00009788  00000-0  77371-3 0  9995
2 42829  97.3907 250.1692 0012685 199.2202 160.8546 15.00784132418255
AO-91
1 43017U 17073E   25077.62260804  .00017988  00000-0  94520-3 0  9998
2 43017  97.5397 310.5366 0181166  88.8834 273.3140 15.02594958396740
S-Net D
1 43186U 18014G   25077.60283374  .00013217  00000-0  80552-3 0  9997
2 43186  97.5696 341.3946 0010382 140.6769 219.5216 15.10449984389846
S-Net B
1 43187U 18014H   25077.27597570  .00014284  00000-0  87057-3 0  9999
2 43187  97.5699 341.0390 0011108 138.5219 221.6855 15.10424282389794
S-Net A
1 43188U 18014J   25077.27226079  .00013939  00000-0  84920-3 0  9995
2 43188  97.5710 341.1750 0010990 138.9431 221.2627 15.10445624389794
S-Net C
1 43189U 18014K   25077.27819362  .00014169  00000-0  86335-3 0  9997
2 43189  97.5723 341.1805 0012725 133.4918 226.7371 15.10419182388344
Ten-Koh
1 43677U 18084G   25077.49484894  .00008466  00000-0  68745-3 0  9996
2 43677  98.0968 246.4358 0010440 181.6641 178.4549 14.99847795347787
PO-101
1 43678U 18084H   25077.89829206  .00008405  00000-0  72264-3 0  9995
2 43678  98.0988 250.9191 0008124 190.8429 169.2618 14.97657255348006
QO-100
1 43700U 18090A   25077.54635919  .00000151  00000-0  00000-0 0  9992
2 43700   0.0197 245.6493 0001554 150.6479   2.5558  1.00274023 23103
MinXSS-2
1 43758U 18099A   25077.21167434  .00035226  00000-0  15436-2 0  9992
2 43758  97.5111 143.1443 0013691  92.6681 267.6122 15.21832851344277
AO-95
1 43770U 18099N   25077.69566122  .00021237  00000-0  11407-2 0  9996
2 43770  97.5025 136.7722 0012589 137.3534 222.8677 15.14864487343990
RANGE-A
1 43773U 18099R   25077.09223067  .00012932  00000-0  84636-3 0  9998
2 43773  97.4592 127.9260 0012987 117.2710 242.9843 15.07811467343636
MOVE-II
1 43780U 18099Y   25077.78486973  .00147646  00000-0  27614-2 0  9992
2 43780  97.4746 148.9522 0003156 117.5183 242.6388 15.48172553344884
SNUSat 2
1 43782U 18099AA  25077.71631968  .00018164  00000-0  10395-2 0  9993
2 43782  97.4703 134.1966 0013793  83.7358 276.5443 15.12616980343968
SnugLite
1 43784U 18099AC  25077.08260061  .00022836  00000-0  12185-2 0  9997
2 43784  97.4524 132.9897 0005117  93.8302 266.3516 15.15140881343987
ITASat 1
1 43786U 18099AE  25077.10718575  .00016424  00000-0  97705-3 0  9998
2 43786  97.4675 133.3398 0016100 132.7668 227.4920 15.11211496343848
EAGLET 1
1 43790U 18099AJ  25077.63972587  .00012128  00000-0  79208-3 0  9991
2 43790  97.4869 134.0614 0013641 113.3411 246.9254 15.07900273343563
ESEO
1 43792U 18099AL  25077.68269467  .00005682  00000-0  43617-3 0  9996
2 43792  97.4590 128.4353 0012217  85.6344 274.6277 15.02093448343371
CSIM
1 43793U 18099AM  25077.76508119  .00127630  00000-0  23517-2 0  9990
2 43793  97.4934 151.0049 0004426  72.0023 288.1709 15.48674262344724
JO-97
1 43803U 18099AX  25077.08977697  .00026225  00000-0  12920-2 0  9992
2 43803  97.4772 137.0186 0009123  82.9338 277.2933 15.17897632344092
Suomi 100
1 43804U 18099AY  25077.70677911  .00022972  00000-0  11949-2 0  9993
2 43804  97.4838 137.1345 0014146  80.0245 280.2584 15.15966946344135
ISAT
1 43879U 18111D   25077.71528131  .00041226  00000-0  16366-2 0  9991
2 43879  97.6004 350.5164 0011959 120.9125 239.3290 15.25156861339023
UWE-4
1 43880U 18111E   25077.23808039  .00034803  00000-0  15129-2 0  9997
2 43880  97.5944 349.0367 0014575 134.4651 225.7779 15.22098061340933
Sparrow
1 43881U 18111F   25077.29882999  .00044168  00000-0  17046-2 0  9996
2 43881  97.6138 352.6731 0008525 151.7809 208.3892 15.26115308341066
Prox-1
1 44339U 19036A   25077.82670021  .00027029  00000-0  36772-2 0  9996
2 44339  23.9974 244.4561 0006516 205.3462 154.6715 14.77316848305843
SONATE
1 44400U 19038Q   25077.56482386  .00122295  00000-0  12380-2 0  9993
2 44400  97.7058  95.2211 0009415 174.7310 185.4049 15.64831864316481
Taurus 1
1 44530U 19059C   25077.81628269  .00018580  00000-0  35543-2 0  9997
2 44530  98.5955 213.4310 0009535 283.0020  77.0116 14.63870786291824
